Погода в Лавертоне

Австралия     28°37′27″S   122°24′02″E
темп.,
°C
ветер,
м/с
пор.,
м/с
влажн.,
%
обл.,
%
осадки,
мм/ч
давл.,
гПа
погр.,
м
11 апреля, вс
вс1123:00+18в81536100 0.0 1020406
02:00+18в8143897 0.0 1019569
05:00+14в9165362 0.0 1019406
08:00+16всв11145114 0.0 1020572
11:00+23св1011285 0.0 1017989
14:00+27св8822100 0.0 10131526
17:00+27св7922100 0.0 1012547
20:00+23всв7132794 0.0 1013213
12 апреля, пн
пн1223:00+22всв101825100 0.0 1011357
02:00+22св12222516 0.0 1008468
05:00+23ссв122232100 0.0 1008578
08:00+26с121832100 0.0 10081057
11:00+32сз14203632 0.0 10062741
14:00+34сз1518265 0.0 10033317
17:00+29з12154966 0.0 10051283
20:00+26з611535 0.0 1008301
13 апреля, вт
вт1323:00+23юз58579 0.0 1009318
02:00+20ююз5880100 0.0 1010411
05:00+19ю6774100 0.0 1012507
08:00+18ююв567499 0.3 1015518
11:00+20ююв6664100 0.3 10151181
14:00+19ю6658100 0.3 1015989
17:00+19ю565243 0.0 1017973
20:00+16ю47550 0.0 101997
14 апреля, ср
ср1423:00+13ююв511385 0.0 1021179
02:00+12ююв6124376 0.0 1021222
05:00+11юв7147193 0.0 1023330
08:00+13вюв911609 0.0 1025602
11:00+19вюв77352 0.0 10231353
14:00+22юв66240 0.0 10211723
17:00+21юв67250 0.0 1022471
20:00+15юв59320 0.0 1024114
15 апреля, чт
чт1523:00+13вюв59360 0.0 1025108
02:00+12вюв57380 0.0 102588
05:00+11вюв510451 0.0 1026122
08:00+14вюв811510 0.0 1027527
11:00+20вюв89320 0.0 10261380
14:00+23вюв88240 0.0 10231714
17:00+21вюв79280 0.0 1024581
20:00+16вюв511440 0.0 1026169